This is the latest recevied weather packets stored in our database for station/object W4DHW-4. If no packets are shown the sender has not sent any weather packets the latest 10 day(s).
| Time | Temp. | Humidity | Pressure | Rain* | Wind** | Luminosity | Snow |
|---|---|---|---|---|---|---|---|
| 1777931479 | 22.22° C | 44% | 1012.8 hPa | 0 mm | - | 41 W/m² | - |
| 1777931174 | 22.22° C | 44% | 1012.3 hPa | 0 mm | - | 70 W/m² | - |
| 1777930871 | 22.22° C | 45% | 1012.6 hPa | 0 mm | - | 42 W/m² | - |
| 1777930567 | 22.22° C | 44% | 1012.1 hPa | 0 mm | - | 22 W/m² | - |
| 1777930264 | 22.78° C | 44% | 1012.6 hPa | 0 mm | - | 27 W/m² | - |
| 1777929960 | 22.78° C | 44% | 1012.4 hPa | 0 mm | - | 27 W/m² | - |
| 1777929658 | 22.78° C | 44% | 1012 hPa | 0 mm | - | 46 W/m² | - |
| 1777929354 | 22.78° C | 43% | 1012 hPa | 0 mm | - | 99 W/m² | - |
| 1777929051 | 22.78° C | 42% | 1012.3 hPa | 0 mm | - | 108 W/m² | - |
| 1777928749 | 23.89° C | 41% | 1011.8 hPa | 0 mm | - | 114 W/m² | - |
| 1777928445 | 23.89° C | 41% | 1011.8 hPa | 0 mm | - | 139 W/m² | - |
| 1777928143 | 23.89° C | 42% | 1011.9 hPa | 0 mm | - | 182 W/m² | - |
| 1777927841 | 23.33° C | 41% | 1011.8 hPa | 0 mm | - | 175 W/m² | - |
| 1777927538 | 24.44° C | 40% | 1011.9 hPa | 0 mm | - | 154 W/m² | - |
| 1777927238 | 23.33° C | 41% | 1011.8 hPa | 0 mm | - | 217 W/m² | - |
| 1777926935 | 23.89° C | 40% | 1012 hPa | 0 mm | - | 201 W/m² | - |
| 1777926632 | 23.89° C | 40% | 1012 hPa | 0 mm | - | 209 W/m² | - |
| 1777926327 | 23.33° C | 40% | 1012.1 hPa | 0 mm | - | 205 W/m² | - |
| 1777926025 | 23.89° C | 40% | 1011.9 hPa | 0 mm | - | 168 W/m² | - |
| 1777925721 | 23.33° C | 40% | 1012 hPa | 0 mm | - | 206 W/m² | - |
| 1777925420 | 22.78° C | 40% | 1012.3 hPa | 0 mm | - | 186 W/m² | - |
| 1777925115 | 22.78° C | 43% | 1012.4 hPa | 0 mm | - | 222 W/m² | - |
| 1777924812 | 22.78° C | 43% | 1012.1 hPa | 0 mm | - | 229 W/m² | - |
| 1777924509 | 22.78° C | 43% | 1012.3 hPa | 0 mm | - | 195 W/m² | - |
| 1777924205 | 22.78° C | 43% | 1012.1 hPa | 0 mm | - | 617 W/m² | - |
* Rain latest hour (hover to see other rain measurements)
** Current wind speed in m/s (hover to see current wind gust speed)